DL1NER Weather Reports


Display with metric or nautical units.
time (UTC)temp
F
wind
direction
speed
MPH
gust
MPH
rain 1hr
in
rain 24hr
in
rain mn
in
humidity
%
barometer
mb
20260903222009 65 257 3.0 6.0 0.00 0.00 0.00 62 1020.0
20260903221056 65 259 3.0 6.0 0.00 0.00 0.00 61 1020.1
20260903220009 66 241 2.0 4.0 0.00 0.00 0.00 61 1019.9
20260903215010 66 254 1.0 3.0 0.00 0.00 0.00 59 1019.8
20260903214009 66 254 2.0 4.0 0.00 0.00 0.00 59 1019.9
20260903213009 67 230 1.0 4.0 0.00 0.00 0.00 58 1019.9
20260903212009 67 230 1.0 4.0 0.00 0.00 0.00 58 1019.9
20260903211008 67 266 1.0 3.0 0.00 0.00 0.00 57 1019.9
20260903210018 67 276 2.0 3.0 0.00 0.00 0.00 56 1020.0
20260903205008 68 277 2.0 4.0 0.00 0.00 0.00 56 1020.0
20260903204009 68 277 2.0 9.0 0.00 0.00 0.00 56 1019.9
20260903203008 68 277 2.0 9.0 0.00 0.00 0.00 56 1019.9
20260903202013 68 236 1.0 4.0 0.00 0.00 0.00 56 1019.9
20260903201013 68 236 2.0 6.0 0.00 0.00 0.00 56 1019.9
20260903200013 68 228 2.0 6.0 0.00 0.00 0.00 57 1019.7
20260903195013 68 231 2.0 6.0 0.00 0.00 0.00 57 1019.5
20260903194013 68 225 2.0 4.0 0.00 0.00 0.00 57 1019.7
20260903193013 68 228 0.0 3.0 0.00 0.00 0.00 58 1019.9
20260903192013 69 220 0.0 0.0 0.00 0.00 0.00 56 1019.8
20260903191013 69 220 0.0 0.0 0.00 0.00 0.00 56 1019.8
20260903190013 69 220 0.0 2.0 0.00 0.00 0.00 56 1019.7
20260903185013 69 220 1.0 3.0 0.00 0.00 0.00 56 1019.7
20260903184013 69 219 0.0 3.0 0.00 0.00 0.00 56 1019.5
20260903183013 70 219 1.0 3.0 0.00 0.00 0.00 55 1019.5
20260903182012 70 252 0.0 3.0 0.00 0.00 0.00 55 1019.5
20260903181012 70 261 1.0 3.0 0.00 0.00 0.00 55 1019.4
20260903180012 71 262 1.0 4.0 0.00 0.00 0.00 54 1019.4
20260903175012 71 277 2.0 4.0 0.00 0.00 0.00 54 1019.4
20260903174013 71 280 3.0 7.0 0.00 0.00 0.00 54 1019.4
20260903173012 72 238 4.0 10.0 0.00 0.00 0.00 54 1019.5
20260903172012 72 260 5.0 14.0 0.00 0.00 0.00 53 1019.5
20260903171013 73 258 9.0 18.0 0.00 0.00 0.00 53 1019.6
20260903170012 73 230 6.0 18.0 0.00 0.00 0.00 53 1019.5
20260903165012 73 256 5.0 10.0 0.00 0.00 0.00 52 1019.3
20260903164012 73 222 5.0 14.0 0.00 0.00 0.00 53 1019.2
20260903163012 73 219 4.0 11.0 0.00 0.00 0.00 52 1019.3
20260903162012 73 259 2.0 8.0 0.00 0.00 0.00 53 1019.3
20260903161012 73 232 4.0 11.0 0.00 0.00 0.00 53 1019.4
20260903160012 73 228 3.0 8.0 0.00 0.00 0.00 53 1019.3
20260903155012 72 254 4.0 10.0 0.00 0.00 0.00 54 1019.3
20260903154012 72 223 3.0 8.0 0.00 0.00 0.00 54 1019.5
20260903153012 72 223 3.0 8.0 0.00 0.00 0.00 54 1019.5
20260903152012 73 252 3.0 8.0 0.00 0.00 0.00 54 1019.5
20260903151012 73 198 4.0 9.0 0.00 0.00 0.00 52 1019.4
20260903150012 73 211 2.0 6.0 0.00 0.00 0.00 53 1019.5
20260903145011 72 231 2.0 6.0 0.00 0.00 0.00 54 1019.7
20260903144011 72 203 3.0 8.0 0.00 0.00 0.00 54 1019.7
20260903143012 72 248 3.0 8.0 0.00 0.00 0.00 56 1019.9
20260903142011 72 173 4.0 12.0 0.00 0.00 0.00 53 1019.9
20260903141011 73 209 5.0 13.0 0.00 0.00 0.00 53 1020.0
20260903140011 73 271 5.0 11.0 0.00 0.00 0.00 54 1019.9
20260903135011 73 252 5.0 12.0 0.00 0.00 0.00 53 1020.1
20260903134011 73 269 5.0 12.0 0.00 0.00 0.00 53 1020.3
20260903133011 73 257 6.0 13.0 0.00 0.00 0.00 51 1020.3
20260903132011 74 283 8.0 20.0 0.00 0.00 0.00 53 1020.3
20260903131011 74 233 6.0 13.0 0.00 0.00 0.00 51 1020.5
20260903130011 74 281 6.0 13.0 0.00 0.00 0.00 52 1020.5
20260903125011 74 238 4.0 9.0 0.00 0.00 0.00 52 1020.3
20260903124011 74 274 6.0 17.0 0.00 0.00 0.00 52 1020.2
20260903123011 74 292 6.0 14.0 0.00 0.00 0.00 52 1020.2
20260903122011 74 242 4.0 13.0 0.00 0.00 0.00 52 1020.3
20260903121011 74 227 5.0 18.0 0.00 0.00 0.00 51 1020.5
20260903120011 74 236 5.0 13.0 0.00 0.00 0.00 52 1020.5